SVA579 OMDB-OERK

Flight info

Callsign SVA579
Flight time 1h 44m
Altitude 34000
Route ANVIX R401 GIDIS G783 ELUDA/N0483F380 G783 RIGIL M628 PEKEM/N0485F280 M628 AMBAG M321 NAGUB
Aircraft A333/H-SDE3GHIJ2J3J5M1RVWXY/LB2D1

Departure

Time 2026-05-05 17:33
Airport Dubai International Airport (OMDB)

Arrival

Time 2026-05-05 19:18
Airport King Khalid International Airport (OERK)
Time Latitude Longitude Altitude Speed Heading
2026-05-05 17:07 25.25777 55.34694 31 ft 0 kts 211°
2026-05-05 17:20 25.25781 55.34697 26 ft 3 kts 211°
2026-05-05 17:20 25.25804 55.34712 32 ft 4 kts 211°
2026-05-05 17:20 25.25826 55.34727 32 ft 2 kts 211°
2026-05-05 17:20 25.25846 55.34738 32 ft 4 kts 186°
2026-05-05 17:21 25.25870 55.34733 30 ft 4 kts 135°
2026-05-05 17:21 25.25885 55.34710 32 ft 4 kts 121°
2026-05-05 17:21 25.25894 55.34694 32 ft 1 kts 121°
2026-05-05 17:24 25.25888 55.34705 30 ft 4 kts 121°
2026-05-05 17:24 25.25871 55.34739 30 ft 6 kts 114°
2026-05-05 17:24 25.25862 55.34790 29 ft 8 kts 95°
2026-05-05 17:25 25.25859 55.34855 28 ft 9 kts 91°
2026-05-05 17:25 25.25857 55.34905 31 ft 10 kts 96°
2026-05-05 17:25 25.25829 55.35015 29 ft 12 kts 88°
2026-05-05 17:25 25.25880 55.35080 30 ft 12 kts 35°
2026-05-05 17:26 25.25955 55.35133 29 ft 13 kts 31°
2026-05-05 17:26 25.26038 55.35187 30 ft 15 kts 31°
2026-05-05 17:26 25.26118 55.35246 27 ft 13 kts 47°
2026-05-05 17:26 25.26111 55.35337 28 ft 13 kts 120°
2026-05-05 17:27 25.26062 55.35429 32 ft 15 kts 122°
2026-05-05 17:27 25.26005 55.35528 29 ft 16 kts 122°
2026-05-05 17:27 25.25944 55.35637 31 ft 17 kts 122°
2026-05-05 17:27 25.25878 55.35754 30 ft 19 kts 122°
2026-05-05 17:28 25.25808 55.35880 30 ft 20 kts 122°
2026-05-05 17:28 25.25734 55.36011 30 ft 21 kts 121°
2026-05-05 17:28 25.25657 55.36151 29 ft 22 kts 121°
2026-05-05 17:28 25.25576 55.36298 30 ft 23 kts 121°
2026-05-05 17:29 25.25487 55.36446 31 ft 23 kts 121°
2026-05-05 17:29 25.25400 55.36603 30 ft 24 kts 123°
2026-05-05 17:29 25.25310 55.36763 28 ft 25 kts 121°
2026-05-05 17:29 25.25218 55.36928 28 ft 26 kts 122°
2026-05-05 17:30 25.25123 55.37097 31 ft 26 kts 121°
2026-05-05 17:30 25.25027 55.37272 29 ft 27 kts 121°
2026-05-05 17:30 25.24933 55.37443 27 ft 21 kts 121°
2026-05-05 17:30 25.24862 55.37560 29 ft 17 kts 123°
2026-05-05 17:31 25.24795 55.37676 30 ft 19 kts 121°
2026-05-05 17:31 25.24726 55.37802 29 ft 20 kts 121°
2026-05-05 17:31 25.24703 55.37859 29 ft 5 kts 87°
2026-05-05 17:31 25.24722 55.37879 39 ft 5 kts 33°
2026-05-05 17:32 25.24773 55.37913 30 ft 10 kts 31°
2026-05-05 17:32 25.24832 55.37948 29 ft 8 kts 12°
2026-05-05 17:32 25.24868 55.37910 28 ft 12 kts 304°
2026-05-05 17:32 25.24976 55.37718 30 ft 58 kts 301°
2026-05-05 17:33 25.25308 55.37127 30 ft 121 kts 301°
2026-05-05 17:33 25.25847 55.36157 32 ft 174 kts 302°
2026-05-05 17:33 25.26485 55.34993 711 ft 176 kts 302°
2026-05-05 17:33 25.27126 55.33820 1389 ft 184 kts 302°
2026-05-05 17:34 25.27812 55.32581 1924 ft 193 kts 302°
2026-05-05 17:34 25.28530 55.31302 2492 ft 199 kts 304°
2026-05-05 17:34 25.29257 55.29991 3152 ft 199 kts 294°
2026-05-05 17:34 25.29462 55.28520 3861 ft 201 kts 260°
2026-05-05 17:35 25.28865 55.27093 4477 ft 214 kts 234°
2026-05-05 17:35 25.27909 55.25744 4983 ft 231 kts 233°
2026-05-05 17:35 25.27088 55.24187 5654 ft 236 kts 246°
2026-05-05 17:35 25.26427 55.22512 6462 ft 238 kts 247°
2026-05-05 17:36 25.25769 55.20815 7175 ft 244 kts 247°
2026-05-05 17:36 25.25076 55.19089 7804 ft 253 kts 244°
2026-05-05 17:36 25.24023 55.17519 8507 ft 259 kts 218°
2026-05-05 17:36 25.22365 55.16739 9162 ft 267 kts 186°
2026-05-05 17:37 25.20493 55.16786 9835 ft 273 kts 168°
2026-05-05 17:37 25.18735 55.17580 10506 ft 277 kts 144°
2026-05-05 17:37 25.17406 55.19176 10954 ft 292 kts 122°
2026-05-05 17:37 25.16403 55.21179 11502 ft 303 kts 117°
2026-05-05 17:38 25.15441 55.23278 12175 ft 309 kts 116°
2026-05-05 17:38 25.14456 55.25410 12874 ft 314 kts 117°
2026-05-05 17:38 25.13445 55.27563 13591 ft 318 kts 117°
2026-05-05 17:38 25.12414 55.29730 14279 ft 320 kts 117°
2026-05-05 17:39 25.11384 55.31887 14934 ft 323 kts 117°
2026-05-05 17:39 25.10381 55.34122 15586 ft 327 kts 115°
2026-05-05 17:39 25.09425 55.36418 16245 ft 330 kts 114°
2026-05-05 17:39 25.08469 55.38744 16899 ft 334 kts 114°
2026-05-05 17:40 25.07508 55.41092 17551 ft 338 kts 113°
2026-05-05 17:40 25.06558 55.43513 18006 ft 348 kts 112°
2026-05-05 17:40 25.05602 55.45997 18250 ft 363 kts 112°
2026-05-05 17:40 25.04595 55.48616 18475 ft 378 kts 112°
2026-05-05 17:41 25.03549 55.51336 18689 ft 392 kts 112°
2026-05-05 17:41 25.02455 55.54153 18905 ft 406 kts 114°
2026-05-05 17:41 25.01137 55.56960 19082 ft 419 kts 119°
2026-05-05 17:41 24.99646 55.59769 19316 ft 429 kts 120°
2026-05-05 17:42 24.98105 55.62611 19665 ft 435 kts 121°
2026-05-05 17:42 24.96545 55.65482 20055 ft 439 kts 121°
2026-05-05 17:42 24.94972 55.68378 20471 ft 442 kts 121°
2026-05-05 17:42 24.93268 55.71214 20890 ft 445 kts 125°
2026-05-05 17:43 24.91452 55.73991 21303 ft 449 kts 126°
2026-05-05 17:43 24.89621 55.76747 21697 ft 452 kts 126°
2026-05-05 17:43 24.87757 55.79549 22100 ft 455 kts 126°
2026-05-05 17:43 24.85882 55.82370 22503 ft 458 kts 126°
2026-05-05 17:44 24.83986 55.85214 22880 ft 462 kts 127°
2026-05-05 17:44 24.82012 55.88031 23260 ft 466 kts 131°
2026-05-05 17:44 24.79663 55.90497 23616 ft 468 kts 144°
2026-05-05 17:44 24.76868 55.92320 23942 ft 468 kts 158°
2026-05-05 17:45 24.73763 55.93367 24307 ft 467 kts 172°
2026-05-05 17:45 24.70529 55.93706 24683 ft 466 kts 180°
2026-05-05 17:45 24.67280 55.93751 25062 ft 467 kts 184°
2026-05-05 17:45 24.64052 55.93385 25425 ft 466 kts 193°
2026-05-05 17:46 24.60937 55.92453 25795 ft 464 kts 203°
2026-05-05 17:46 24.58053 55.90973 26146 ft 462 kts 213°
2026-05-05 17:46 24.55413 55.88957 26521 ft 461 kts 220°
2026-05-05 17:46 24.52927 55.86722 26892 ft 462 kts 223°
2026-05-05 17:47 24.50504 55.84400 27250 ft 463 kts 224°
2026-05-05 17:47 24.48100 55.82036 27609 ft 464 kts 225°
2026-05-05 17:47 24.45689 55.79654 27968 ft 466 kts 225°
2026-05-05 17:47 24.43269 55.77276 28299 ft 468 kts 224°
2026-05-05 17:48 24.40826 55.74897 28631 ft 470 kts 224°
2026-05-05 17:48 24.38402 55.72552 28975 ft 472 kts 224°
2026-05-05 17:48 24.35928 55.70171 29300 ft 474 kts 224°
2026-05-05 17:48 24.33438 55.67782 29625 ft 476 kts 224°
2026-05-05 17:49 24.30940 55.65389 29928 ft 477 kts 224°
2026-05-05 17:49 24.28357 55.63089 30292 ft 478 kts 218°
2026-05-05 17:49 24.25526 55.61148 30605 ft 482 kts 211°
2026-05-05 17:49 24.22440 55.59683 30969 ft 485 kts 202°
2026-05-05 17:50 24.19226 55.58548 31388 ft 484 kts 200°
2026-05-05 17:50 24.15988 55.57528 31809 ft 483 kts 199°
2026-05-05 17:50 24.12752 55.56572 32216 ft 481 kts 198°
2026-05-05 17:50 24.09518 55.55638 32634 ft 479 kts 198°
2026-05-05 17:51 24.06338 55.54720 33033 ft 478 kts 198°
2026-05-05 17:51 24.03130 55.53787 33435 ft 476 kts 198°
2026-05-05 17:51 23.99930 55.52847 33767 ft 476 kts 199°
2026-05-05 17:52 23.93551 55.50958 33815 ft 473 kts 198°
2026-05-05 17:52 23.87204 55.49073 33811 ft 472 kts 198°
2026-05-05 17:53 23.80870 55.47191 33807 ft 472 kts 198°
2026-05-05 17:53 23.74575 55.45320 33809 ft 472 kts 198°
2026-05-05 17:54 23.68238 55.43439 33804 ft 472 kts 198°
2026-05-05 17:54 23.61889 55.41558 33802 ft 473 kts 198°
2026-05-05 17:55 23.55531 55.39676 33802 ft 473 kts 198°
2026-05-05 17:55 23.49159 55.37792 33814 ft 473 kts 198°
2026-05-05 17:56 23.42838 55.35923 33796 ft 473 kts 198°
2026-05-05 17:56 23.36471 55.34042 33796 ft 474 kts 198°
2026-05-05 17:57 23.30091 55.32159 33798 ft 475 kts 198°
2026-05-05 17:57 23.23710 55.30278 33796 ft 475 kts 198°
2026-05-05 17:58 23.17328 55.28399 33799 ft 475 kts 198°
2026-05-05 17:58 23.11121 55.26176 33787 ft 470 kts 208°
2026-05-05 17:59 23.05765 55.22222 33791 ft 464 kts 226°
2026-05-05 17:59 23.01995 55.16609 33792 ft 460 kts 245°
2026-05-05 18:00 23.00051 55.10011 33786 ft 459 kts 257°
2026-05-05 18:00 22.98717 55.03221 33782 ft 460 kts 258°
2026-05-05 18:01 22.97455 54.96453 33782 ft 460 kts 258°
2026-05-05 18:01 22.96145 54.89650 33778 ft 460 kts 258°
2026-05-05 18:02 22.94803 54.82855 33858 ft 462 kts 258°
2026-05-05 18:02 22.94123 54.79439 34122 ft 462 kts 258°
2026-05-05 18:02 22.93672 54.77179 34353 ft 461 kts 258°
2026-05-05 18:02 22.92994 54.73784 34703 ft 459 kts 257°
2026-05-05 18:03 22.92319 54.70404 35041 ft 458 kts 257°
2026-05-05 18:03 22.91643 54.67019 35374 ft 457 kts 257°
2026-05-05 18:03 22.90971 54.63660 35686 ft 456 kts 257°
2026-05-05 18:03 22.90083 54.59219 36118 ft 454 kts 257°
2026-05-05 18:04 22.89639 54.57003 36326 ft 454 kts 257°
2026-05-05 18:04 22.88969 54.53661 36642 ft 453 kts 257°
2026-05-05 18:04 22.88300 54.50330 36947 ft 451 kts 257°
2026-05-05 18:04 22.87632 54.47006 37226 ft 451 kts 257°
2026-05-05 18:05 22.86962 54.43675 37532 ft 450 kts 257°
2026-05-05 18:05 22.86294 54.40361 37753 ft 450 kts 257°
2026-05-05 18:05 22.85624 54.37040 37781 ft 450 kts 257°
2026-05-05 18:06 22.84294 54.30456 37782 ft 449 kts 257°
2026-05-05 18:06 22.82953 54.23834 37786 ft 449 kts 257°
2026-05-05 18:07 22.81610 54.17213 37783 ft 449 kts 257°
2026-05-05 18:07 22.80264 54.10597 37781 ft 449 kts 257°
2026-05-05 18:08 22.78926 54.04032 37783 ft 449 kts 257°
2026-05-05 18:08 22.78167 53.97324 37786 ft 450 kts 268°
2026-05-05 18:09 22.78251 53.90527 37785 ft 452 kts 270°
2026-05-05 18:09 22.78493 53.83710 37787 ft 451 kts 270°
2026-05-05 18:10 22.78748 53.76928 37789 ft 450 kts 270°
2026-05-05 18:10 22.78982 53.70148 37787 ft 450 kts 270°
2026-05-05 18:11 22.79202 53.63373 37788 ft 450 kts 270°
2026-05-05 18:11 22.79415 53.56631 37788 ft 450 kts 270°
2026-05-05 18:12 22.79627 53.49847 37792 ft 450 kts 270°
2026-05-05 18:12 22.79836 53.43045 37785 ft 450 kts 270°
2026-05-05 18:13 22.80042 53.36301 37789 ft 450 kts 270°
2026-05-05 18:13 22.80247 53.29515 37788 ft 450 kts 270°
2026-05-05 18:14 22.80448 53.22721 37795 ft 450 kts 270°
2026-05-05 18:14 22.80646 53.15929 37792 ft 451 kts 270°
2026-05-05 18:15 22.80841 53.09168 37797 ft 451 kts 270°
2026-05-05 18:15 22.81034 53.02376 37793 ft 451 kts 270°
2026-05-05 18:16 22.81225 52.95586 37797 ft 450 kts 270°
2026-05-05 18:16 22.81412 52.88801 37794 ft 450 kts 270°
2026-05-05 18:17 22.81595 52.82068 37794 ft 450 kts 270°
2026-05-05 18:17 22.81776 52.75294 37794 ft 450 kts 270°
2026-05-05 18:18 22.81955 52.68501 37797 ft 450 kts 270°
2026-05-05 18:18 22.82131 52.61718 37798 ft 450 kts 270°
2026-05-05 18:19 22.82303 52.54955 37792 ft 450 kts 270°
2026-05-05 18:19 22.82472 52.48157 37793 ft 450 kts 270°
2026-05-05 18:20 22.82620 52.41364 37791 ft 450 kts 269°
2026-05-05 18:20 22.82757 52.34578 37794 ft 450 kts 269°
2026-05-05 18:21 22.82892 52.27830 37798 ft 450 kts 269°
2026-05-05 18:21 22.83027 52.21036 37797 ft 451 kts 269°
2026-05-05 18:22 22.83159 52.14240 37797 ft 451 kts 269°
2026-05-05 18:22 22.83288 52.07436 37792 ft 450 kts 269°
2026-05-05 18:23 22.83414 52.00660 37796 ft 449 kts 269°
2026-05-05 18:23 22.83536 51.93889 37796 ft 449 kts 269°
2026-05-05 18:24 22.83656 51.87146 37796 ft 449 kts 269°
2026-05-05 18:24 22.83773 51.80363 37795 ft 449 kts 269°
2026-05-05 18:25 22.83887 51.73590 37792 ft 449 kts 269°
2026-05-05 18:25 22.83997 51.66863 37792 ft 449 kts 269°
2026-05-05 18:26 22.84106 51.60085 37796 ft 449 kts 269°
2026-05-05 18:26 22.84211 51.53306 37800 ft 449 kts 269°
2026-05-05 18:27 22.84322 51.46524 37797 ft 450 kts 270°
2026-05-05 18:27 22.84688 51.39741 37800 ft 451 kts 272°
2026-05-05 18:28 22.85450 51.29624 37796 ft 451 kts 272°
2026-05-05 18:28 22.85939 51.22832 37797 ft 451 kts 272°
2026-05-05 18:29 22.86406 51.16029 37794 ft 451 kts 272°
2026-05-05 18:29 22.86861 51.09279 37800 ft 451 kts 272°
2026-05-05 18:30 22.87315 51.02488 37796 ft 451 kts 272°
2026-05-05 18:30 22.87768 50.95692 37798 ft 451 kts 272°
2026-05-05 18:31 22.88218 50.88898 37798 ft 451 kts 272°
2026-05-05 18:31 22.88664 50.82113 37791 ft 451 kts 272°
2026-05-05 18:32 22.89109 50.75318 37795 ft 451 kts 272°
2026-05-05 18:32 22.89548 50.68562 37795 ft 451 kts 272°
2026-05-05 18:33 22.89988 50.61760 37788 ft 452 kts 272°
2026-05-05 18:33 22.90425 50.54962 37784 ft 451 kts 272°
2026-05-05 18:34 22.90858 50.48187 37780 ft 450 kts 272°
2026-05-05 18:34 22.91287 50.41418 37787 ft 450 kts 272°
2026-05-05 18:35 22.91711 50.34683 37792 ft 450 kts 272°
2026-05-05 18:35 22.92134 50.27910 37789 ft 450 kts 272°
2026-05-05 18:36 22.92557 50.21118 37786 ft 450 kts 272°
2026-05-05 18:36 22.92973 50.14377 37782 ft 450 kts 272°
2026-05-05 18:37 22.93388 50.07597 37786 ft 450 kts 272°
2026-05-05 18:37 22.93798 50.00854 37791 ft 450 kts 272°
2026-05-05 18:38 22.94208 49.94076 37781 ft 450 kts 272°
2026-05-05 18:38 22.94614 49.87298 37775 ft 449 kts 271°
2026-05-05 18:39 22.95017 49.80542 37784 ft 448 kts 271°
2026-05-05 18:39 22.95416 49.73795 37781 ft 448 kts 271°
2026-05-05 18:40 22.95811 49.67040 37779 ft 449 kts 271°
2026-05-05 18:40 22.96203 49.60309 37778 ft 449 kts 271°
2026-05-05 18:41 22.96594 49.53547 37783 ft 449 kts 271°
2026-05-05 18:41 22.96982 49.46775 37783 ft 449 kts 271°
2026-05-05 18:42 22.97368 49.39999 37776 ft 449 kts 271°
2026-05-05 18:42 22.97748 49.33277 37780 ft 449 kts 271°
2026-05-05 18:43 22.98127 49.26511 37764 ft 449 kts 271°
2026-05-05 18:43 22.98504 49.19734 37777 ft 449 kts 271°
2026-05-05 18:44 22.98877 49.12980 37767 ft 447 kts 271°
2026-05-05 18:44 22.99247 49.06224 37775 ft 447 kts 271°
2026-05-05 18:45 22.99621 48.99479 37777 ft 448 kts 272°
2026-05-05 18:45 23.00125 48.92775 37777 ft 448 kts 273°
2026-05-05 18:46 23.00693 48.86031 37778 ft 448 kts 273°
2026-05-05 18:46 23.01254 48.79286 37778 ft 448 kts 272°
2026-05-05 18:47 23.01799 48.72538 37776 ft 448 kts 272°
2026-05-05 18:47 23.02336 48.65800 37774 ft 448 kts 272°
2026-05-05 18:48 23.02866 48.59099 37802 ft 448 kts 272°
2026-05-05 18:48 23.03396 48.52369 37783 ft 446 kts 272°
2026-05-05 18:49 23.03921 48.45667 37787 ft 445 kts 272°
2026-05-05 18:49 23.04443 48.38965 37787 ft 446 kts 272°
2026-05-05 18:50 23.04964 48.32244 37785 ft 446 kts 272°
2026-05-05 18:50 23.05479 48.25565 37787 ft 446 kts 272°
2026-05-05 18:51 23.05909 48.19972 37788 ft 446 kts 272°
2026-05-05 18:51 23.06423 48.13251 37790 ft 447 kts 272°
2026-05-05 18:52 23.06935 48.06525 37791 ft 447 kts 272°
2026-05-05 18:52 23.07444 47.99790 37790 ft 447 kts 272°
2026-05-05 18:53 23.07949 47.93082 37795 ft 444 kts 272°
2026-05-05 18:53 23.08514 47.86411 37798 ft 444 kts 276°
2026-05-05 18:54 23.10279 47.80002 37802 ft 452 kts 291°
2026-05-05 18:54 23.13926 47.74357 37806 ft 464 kts 310°
2026-05-05 18:55 23.19174 47.70132 37813 ft 474 kts 323°
2026-05-05 18:55 23.24810 47.66360 37416 ft 477 kts 323°
2026-05-05 18:56 23.27604 47.64486 36720 ft 478 kts 322°
2026-05-05 18:56 23.30441 47.62574 35951 ft 482 kts 322°
2026-05-05 18:56 23.33295 47.60646 35203 ft 485 kts 323°
2026-05-05 18:56 23.36170 47.58701 34465 ft 487 kts 323°
2026-05-05 18:57 23.39057 47.56745 33732 ft 489 kts 323°
2026-05-05 18:57 23.41952 47.54782 32923 ft 491 kts 322°
2026-05-05 18:57 23.44822 47.52766 32255 ft 486 kts 318°
2026-05-05 18:57 23.47280 47.50330 31912 ft 471 kts 306°
2026-05-05 18:58 23.51255 47.44691 31830 ft 470 kts 302°
2026-05-05 18:58 23.55114 47.38965 31436 ft 471 kts 302°
2026-05-05 18:59 23.57055 47.36085 30575 ft 474 kts 302°
2026-05-05 18:59 23.59015 47.33180 29681 ft 476 kts 302°
2026-05-05 18:59 23.60983 47.30266 28715 ft 477 kts 302°
2026-05-05 18:59 23.62951 47.27350 27817 ft 477 kts 303°
2026-05-05 19:00 23.64907 47.24454 27103 ft 473 kts 303°
2026-05-05 19:00 23.66848 47.21579 26372 ft 469 kts 303°
2026-05-05 19:00 23.68773 47.18723 25686 ft 465 kts 303°
2026-05-05 19:00 23.70683 47.15888 24974 ft 462 kts 303°
2026-05-05 19:01 23.72583 47.13067 24279 ft 459 kts 303°
2026-05-05 19:01 23.74469 47.10264 23647 ft 455 kts 303°
2026-05-05 19:01 23.76338 47.07486 22999 ft 451 kts 303°
2026-05-05 19:01 23.78159 47.04782 22947 ft 431 kts 303°
2026-05-05 19:02 23.79879 47.02226 22946 ft 413 kts 303°
2026-05-05 19:02 23.81541 46.99754 22942 ft 396 kts 303°
2026-05-05 19:02 23.83136 46.97378 22942 ft 379 kts 303°
2026-05-05 19:02 23.84667 46.95097 22920 ft 364 kts 303°
2026-05-05 19:03 23.86134 46.92909 22907 ft 350 kts 303°
2026-05-05 19:03 23.87547 46.90801 22861 ft 338 kts 303°
2026-05-05 19:03 23.89240 46.89004 22287 ft 349 kts 325°
2026-05-05 19:03 23.91558 46.88084 21585 ft 365 kts 350°
2026-05-05 19:04 23.94108 46.88286 21074 ft 373 kts 15°
2026-05-05 19:04 23.96474 46.89452 20694 ft 372 kts 26°
2026-05-05 19:04 23.98778 46.90722 20310 ft 369 kts 23°
2026-05-05 19:04 24.01133 46.91819 19945 ft 366 kts 19°
2026-05-05 19:05 24.03524 46.92764 19572 ft 363 kts 17°
2026-05-05 19:05 24.05922 46.93608 19189 ft 361 kts 15°
2026-05-05 19:05 24.08320 46.94393 18838 ft 358 kts 14°
2026-05-05 19:05 24.10676 46.95132 18459 ft 356 kts 14°
2026-05-05 19:06 24.13059 46.95863 18118 ft 353 kts 14°
2026-05-05 19:06 24.15424 46.96578 17740 ft 350 kts 13°
2026-05-05 19:06 24.17763 46.97280 17365 ft 347 kts 13°
2026-05-05 19:06 24.20085 46.97974 16979 ft 344 kts 13°
2026-05-05 19:07 24.22393 46.98659 16545 ft 343 kts 13°
2026-05-05 19:07 24.24689 46.99345 16149 ft 341 kts 13°
2026-05-05 19:07 24.26975 47.00029 15750 ft 339 kts 13°
2026-05-05 19:07 24.29243 47.00706 15374 ft 337 kts 13°
2026-05-05 19:08 24.31494 47.01378 14987 ft 335 kts 13°
2026-05-05 19:08 24.33739 47.02048 14605 ft 333 kts 13°
2026-05-05 19:08 24.35942 47.02706 14235 ft 331 kts 13°
2026-05-05 19:08 24.38174 47.03254 13853 ft 327 kts
2026-05-05 19:09 24.40403 47.03008 13430 ft 320 kts 338°
2026-05-05 19:09 24.42394 47.01987 13029 ft 315 kts 329°
2026-05-05 19:09 24.44299 47.00798 12586 ft 314 kts 328°
2026-05-05 19:09 24.46183 46.99594 12163 ft 313 kts 328°
2026-05-05 19:10 24.48061 46.98398 11727 ft 312 kts 328°
2026-05-05 19:10 24.49921 46.97221 11328 ft 311 kts 328°
2026-05-05 19:10 24.51791 46.96041 10942 ft 309 kts 328°
2026-05-05 19:10 24.53655 46.94868 10559 ft 308 kts 328°
2026-05-05 19:11 24.55517 46.93698 10164 ft 307 kts 328°
2026-05-05 19:11 24.57352 46.92546 9962 ft 301 kts 328°
2026-05-05 19:11 24.59177 46.91399 9588 ft 301 kts 328°
2026-05-05 19:11 24.61002 46.90252 9106 ft 302 kts 329°
2026-05-05 19:12 24.62829 46.89105 8717 ft 301 kts 329°
2026-05-05 19:12 24.64617 46.87981 8322 ft 299 kts 329°
2026-05-05 19:12 24.66419 46.86849 8021 ft 295 kts 329°
2026-05-05 19:12 24.68189 46.85737 7922 ft 293 kts 329°
2026-05-05 19:13 24.69990 46.84693 7573 ft 294 kts 336°
2026-05-05 19:13 24.71911 46.83908 7112 ft 295 kts 340°
2026-05-05 19:13 24.73866 46.83204 6719 ft 295 kts 341°
2026-05-05 19:13 24.75799 46.82517 6477 ft 285 kts 341°
2026-05-05 19:14 24.77644 46.81863 6139 ft 273 kts 341°
2026-05-05 19:14 24.79442 46.81211 5478 ft 272 kts 340°
2026-05-05 19:14 24.81226 46.80462 4730 ft 275 kts 337°
2026-05-05 19:14 24.82924 46.79548 4261 ft 267 kts 329°
2026-05-05 19:15 24.84472 46.78553 4074 ft 245 kts 329°
2026-05-05 19:15 24.85875 46.77666 3841 ft 223 kts 330°
2026-05-05 19:15 24.87179 46.76852 3587 ft 208 kts 329°
2026-05-05 19:15 24.88385 46.76091 3329 ft 195 kts 329°
2026-05-05 19:16 24.89522 46.75367 3100 ft 182 kts 329°
2026-05-05 19:16 24.90573 46.74698 2893 ft 165 kts 329°
2026-05-05 19:16 24.91516 46.74086 2732 ft 153 kts 330°
2026-05-05 19:16 24.92404 46.73532 2535 ft 141 kts 331°
2026-05-05 19:17 24.93241 46.73006 2349 ft 136 kts 329°
2026-05-05 19:17 24.94056 46.72494 2148 ft 133 kts 330°
2026-05-05 19:17 24.94862 46.71974 2042 ft 129 kts 334°
2026-05-05 19:17 24.95472 46.71600 2040 ft 66 kts 330°
2026-05-05 19:18 24.95730 46.71438 2043 ft 34 kts 329°
2026-05-05 19:18 24.95920 46.71289 2041 ft 33 kts 307°
2026-05-05 19:18 24.95999 46.71119 2042 ft 4 kts 279°
2026-05-05 19:18 24.96000 46.71101 2041 ft 6 kts 272°
2026-05-05 19:19 24.95984 46.71022 2038 ft 13 kts 250°
2026-05-05 19:19 24.95972 46.70990 2041 ft 6 kts 245°
2026-05-05 19:19 24.95941 46.70926 2038 ft 11 kts 241°
2026-05-05 19:19 24.95900 46.70845 2042 ft 13 kts 240°
2026-05-05 19:20 24.95857 46.70754 2044 ft 13 kts 255°
2026-05-05 19:20 24.95899 46.70674 2041 ft 13 kts 325°
2026-05-05 19:20 24.95981 46.70619 2040 ft 15 kts 329°
2026-05-05 19:20 24.96060 46.70568 2043 ft 10 kts 326°
2026-05-05 19:21 24.96071 46.70517 2035 ft 3 kts 248°
2026-05-05 19:21 24.96056 46.70508 2041 ft 2 kts 200°
2026-05-05 19:21 24.96034 46.70499 2038 ft 4 kts 202°
2026-05-05 19:21 24.96001 46.70483 2042 ft 6 kts 203°
2026-05-05 19:22 24.95973 46.70470 2041 ft 3 kts 203°
2026-05-05 19:22 24.95965 46.70466 2039 ft 0 kts 204°